Time,TemperatureF,DewpointF,PressureIn,WindDirection,WindDirectionDegrees,WindSpeedMPH,WindSpeedGustMPH,Humidity,HourlyPrecipIn,Conditions,Clouds,dailyrainin,SoftwareType,DateUTC
2013-02-07 00:02:00,41.0,33.0,-100.00,SE,140,7.0,12.0,73,0.00,,,-99.99,,2013-02-07 06:02:00,
2013-02-07 00:11:00,41.0,34.0,-100.00,ESE,120,6.0,9.0,75,0.00,,,-99.99,,2013-02-07 06:11:00,
2013-02-07 00:22:00,40.0,34.0,-100.00,ESE,120,4.0,7.0,77,0.00,,,-99.99,,2013-02-07 06:22:00,
2013-02-07 00:32:00,40.0,34.0,-100.00,ESE,120,5.0,8.0,78,0.00,,,-99.99,,2013-02-07 06:32:00,
2013-02-07 00:43:00,40.0,34.0,-100.00,ESE,115,6.0,7.0,80,0.00,,,-99.99,,2013-02-07 06:43:00,
2013-02-07 00:52:00,40.0,35.0,-100.00,ESE,120,6.0,10.0,81,0.00,,,-99.99,,2013-02-07 06:52:00,
2013-02-07 01:01:00,40.0,35.0,-100.00,SE,125,7.0,9.0,81,0.00,,,-99.99,,2013-02-07 07:01:00,
2013-02-07 01:11:00,40.0,35.0,-100.00,SE,140,8.0,9.0,81,0.03,,,-99.99,,2013-02-07 07:11:00,
2013-02-07 01:22:00,40.0,35.0,-100.00,SE,140,8.0,9.0,81,0.03,,,-99.99,,2013-02-07 07:22:00,
2013-02-07 01:32:00,40.0,35.0,-100.00,SE,130,5.0,9.0,82,0.00,,,-99.99,,2013-02-07 07:32:00,
2013-02-07 01:42:00,40.0,35.0,-100.00,ESE,120,6.0,9.0,83,0.00,,,-99.99,,2013-02-07 07:42:00,
2013-02-07 01:52:00,40.0,35.0,-100.00,SE,145,6.0,9.0,84,0.01,,,-99.99,,2013-02-07 07:52:00,
2013-02-07 02:01:00,40.0,36.0,-100.00,SE,125,4.0,6.0,85,0.03,,,-99.99,,2013-02-07 08:01:00,
2013-02-07 02:11:00,40.0,36.0,-100.00,SE,125,4.0,7.0,85,0.04,,,-99.99,,2013-02-07 08:11:00,
2013-02-07 02:21:00,40.0,36.0,-100.00,SE,140,2.0,6.0,86,0.07,,,-99.99,,2013-02-07 08:21:00,
2013-02-07 02:32:00,39.0,36.0,-100.00,SE,125,6.0,7.0,87,0.16,,,-99.99,,2013-02-07 08:32:00,
2013-02-07 02:42:00,39.0,36.0,-100.00,SE,130,2.0,7.0,88,0.14,,,-99.99,,2013-02-07 08:42:00,
2013-02-07 02:52:00,39.0,36.0,-100.00,SE,145,0.0,2.0,89,0.13,,,-99.99,,2013-02-07 08:52:00,
2013-02-07 03:01:00,39.0,36.0,-100.00,East,90,0.0,1.0,89,0.17,,,-99.99,,2013-02-07 09:01:00,
2013-02-07 03:11:00,39.0,37.0,-100.00,East,80,2.0,2.0,91,0.01,,,-99.99,,2013-02-07 09:11:00,
2013-02-07 03:21:00,39.0,37.0,-100.00,East,100,2.0,2.0,91,0.00,,,-99.99,,2013-02-07 09:21:00,
2013-02-07 03:32:00,39.0,37.0,-100.00,East,80,3.0,4.0,91,0.00,,,-99.99,,2013-02-07 09:32:00,
2013-02-07 03:41:00,39.0,37.0,-100.00,ESE,110,3.0,4.0,92,0.01,,,-99.99,,2013-02-07 09:41:00,
2013-02-07 03:51:00,39.0,37.0,-100.00,East,100,4.0,4.0,92,0.01,,,-99.99,,2013-02-07 09:51:00,
2013-02-07 04:01:00,39.0,37.0,-100.00,East,100,4.0,4.0,92,0.01,,,-99.99,,2013-02-07 10:01:00,
2013-02-07 04:11:00,39.0,37.0,-100.00,ESE,110,2.0,4.0,93,0.04,,,-99.99,,2013-02-07 10:11:00,
2013-02-07 04:22:00,39.0,37.0,-100.00,ESE,105,3.0,4.0,93,0.08,,,-99.99,,2013-02-07 10:22:00,
2013-02-07 04:32:00,39.0,37.0,-100.00,East,95,3.0,4.0,93,0.03,,,-99.99,,2013-02-07 10:32:00,
2013-02-07 04:41:00,39.0,37.0,-100.00,East,95,4.0,5.0,94,0.00,,,-99.99,,2013-02-07 10:41:00,
2013-02-07 04:51:00,39.0,37.0,-100.00,SE,135,1.0,2.0,94,0.04,,,-99.99,,2013-02-07 10:51:00,
2013-02-07 05:01:00,39.0,37.0,-100.00,SE,135,1.0,2.0,94,0.04,,,-99.99,,2013-02-07 11:01:00,
2013-02-07 05:11:00,38.0,37.0,-100.00,ESE,110,0.0,2.0,94,0.00,,,-99.99,,2013-02-07 11:11:00,
2013-02-07 05:22:00,39.0,37.0,-100.00,East,95,3.0,4.0,94,0.00,,,-99.99,,2013-02-07 11:22:00,
2013-02-07 05:32:00,38.0,37.0,-100.00,ESE,120,0.0,2.0,94,0.00,,,-99.99,,2013-02-07 11:32:00,
2013-02-07 05:44:00,38.0,37.0,-100.00,ENE,75,2.0,2.0,94,0.00,,,-99.99,,2013-02-07 11:44:00,
2013-02-07 05:52:00,38.0,36.0,-100.00,ESE,105,2.0,4.0,94,0.00,,,-99.99,,2013-02-07 11:52:00,
2013-02-07 06:02:00,38.0,36.0,-100.00,ESE,105,2.0,4.0,94,0.00,,,-99.99,,2013-02-07 12:02:00,
2013-02-07 06:11:00,38.0,36.0,-100.00,ESE,110,3.0,5.0,94,0.00,,,-99.99,,2013-02-07 12:11:00,
2013-02-07 06:22:00,38.0,37.0,-100.00,ESE,110,4.0,5.0,94,0.00,,,-99.99,,2013-02-07 12:22:00,
2013-02-07 06:32:00,38.0,37.0,-100.00,ESE,120,4.0,6.0,94,0.00,,,-99.99,,2013-02-07 12:32:00,
2013-02-07 06:42:00,38.0,37.0,-100.00,SE,130,5.0,7.0,94,0.00,,,-99.99,,2013-02-07 12:42:00,
2013-02-07 06:52:00,38.0,36.0,-100.00,ESE,120,4.0,6.0,94,0.00,,,-99.99,,2013-02-07 12:52:00,
2013-02-07 07:02:00,38.0,36.0,-100.00,ESE,120,4.0,6.0,94,0.00,,,-99.99,,2013-02-07 13:02:00,
2013-02-07 07:12:00,38.0,37.0,-100.00,SE,125,2.0,6.0,94,0.01,,,-99.99,,2013-02-07 13:12:00,
2013-02-07 07:22:00,38.0,37.0,-100.00,SE,125,2.0,5.0,94,0.04,,,-99.99,,2013-02-07 13:22:00,
2013-02-07 07:32:00,38.0,36.0,-100.00,ESE,120,2.0,4.0,94,0.03,,,-99.99,,2013-02-07 13:32:00,
2013-02-07 07:42:00,38.0,36.0,-100.00,ESE,115,3.0,4.0,94,0.06,,,-99.99,,2013-02-07 13:42:00,
2013-02-07 07:51:00,38.0,37.0,-100.00,ESE,110,4.0,6.0,94,0.01,,,-99.99,,2013-02-07 13:51:00,
2013-02-07 08:01:00,38.0,37.0,-100.00,ESE,110,4.0,6.0,94,0.01,,,-99.99,,2013-02-07 14:01:00,
2013-02-07 08:11:00,38.0,37.0,-100.00,East,95,2.0,4.0,94,0.01,,,-99.99,,2013-02-07 14:11:00,
2013-02-07 08:21:00,38.0,37.0,-100.00,ESE,115,1.0,4.0,94,0.03,,,-99.99,,2013-02-07 14:21:00,
2013-02-07 08:32:00,38.0,37.0,-100.00,ESE,105,2.0,3.0,94,0.04,,,-99.99,,2013-02-07 14:32:00,
2013-02-07 08:41:00,38.0,37.0,-100.00,East,100,1.0,3.0,94,0.06,,,-99.99,,2013-02-07 14:41:00,
2013-02-07 08:52:00,38.0,37.0,-100.00,ESE,105,4.0,6.0,94,0.00,,,-99.99,,2013-02-07 14:52:00,
2013-02-07 09:02:00,38.0,37.0,-100.00,ESE,105,4.0,6.0,94,0.00,,,-99.99,,2013-02-07 15:02:00,
2013-02-07 09:11:00,38.0,37.0,-100.00,ESE,115,2.0,6.0,94,0.00,,,-99.99,,2013-02-07 15:11:00,
2013-02-07 09:22:00,39.0,37.0,-100.00,ESE,120,4.0,6.0,94,0.00,,,-99.99,,2013-02-07 15:22:00,
2013-02-07 09:32:00,39.0,37.0,-100.00,ESE,110,2.0,4.0,94,0.00,,,-99.99,,2013-02-07 15:32:00,
2013-02-07 09:42:00,39.0,37.0,-100.00,SE,125,1.0,4.0,94,0.00,,,-99.99,,2013-02-07 15:42:00,
2013-02-07 09:52:00,39.0,37.0,-100.00,ESE,105,0.0,1.0,94,0.00,,,-99.99,,2013-02-07 15:52:00,
2013-02-07 10:01:00,39.0,37.0,-100.00,ESE,105,0.0,1.0,94,0.00,,,-99.99,,2013-02-07 16:01:00,
2013-02-07 10:11:00,39.0,37.0,-100.00,ESE,105,0.0,0.0,95,0.00,,,-99.99,,2013-02-07 16:11:00,
2013-02-07 10:21:00,39.0,38.0,-100.00,NNW,345,0.0,0.0,95,0.03,,,-99.99,,2013-02-07 16:21:00,
2013-02-07 10:32:00,39.0,37.0,-100.00,NNW,345,0.0,0.0,95,0.03,,,-99.99,,2013-02-07 16:32:00,
2013-02-07 10:41:00,39.0,37.0,-100.00,NW,310,2.0,3.0,95,0.01,,,-99.99,,2013-02-07 16:41:00,
2013-02-07 10:52:00,39.0,38.0,-100.00,NW,315,2.0,4.0,95,0.01,,,-99.99,,2013-02-07 16:52:00,
2013-02-07 11:01:00,39.0,38.0,-100.00,NW,315,2.0,4.0,95,0.01,,,-99.99,,2013-02-07 17:01:00,
2013-02-07 11:11:00,39.0,37.0,-100.00,NW,305,1.0,4.0,95,0.01,,,-99.99,,2013-02-07 17:11:00,
2013-02-07 11:21:00,39.0,38.0,-100.00,NW,315,0.0,2.0,95,0.00,,,-99.99,,2013-02-07 17:21:00,
2013-02-07 11:32:00,39.0,38.0,-100.00,NW,315,4.0,4.0,95,0.01,,,-99.99,,2013-02-07 17:32:00,
2013-02-07 11:42:00,39.0,38.0,-100.00,North,350,0.0,2.0,95,0.03,,,-99.99,,2013-02-07 17:42:00,
2013-02-07 11:52:00,39.0,38.0,-100.00,NW,310,4.0,6.0,95,0.04,,,-99.99,,2013-02-07 17:52:00,
2013-02-07 12:01:00,39.0,38.0,-100.00,NW,310,4.0,6.0,95,0.04,,,-99.99,,2013-02-07 18:01:00,
2013-02-07 12:11:00,39.0,38.0,-100.00,WNW,300,4.0,6.0,95,0.01,,,-99.99,,2013-02-07 18:11:00,
2013-02-07 12:23:00,39.0,38.0,-100.00,NW,310,2.0,6.0,95,0.03,,,-99.99,,2013-02-07 18:23:00,
2013-02-07 12:32:00,39.0,38.0,-100.00,WNW,290,3.0,4.0,95,0.04,,,-99.99,,2013-02-07 18:32:00,
2013-02-07 12:41:00,39.0,38.0,-100.00,WNW,300,2.0,4.0,95,0.03,,,-99.99,,2013-02-07 18:41:00,
2013-02-07 12:51:00,40.0,38.0,-100.00,NW,310,6.0,11.0,95,0.03,,,-99.99,,2013-02-07 18:51:00,
2013-02-07 13:01:00,40.0,38.0,-100.00,NW,310,6.0,11.0,95,0.03,,,-99.99,,2013-02-07 19:01:00,
2013-02-07 13:11:00,39.0,38.0,-100.00,NNW,330,7.0,11.0,95,0.04,,,-99.99,,2013-02-07 19:11:00,
2013-02-07 13:22:00,39.0,38.0,-100.00,NW,315,6.0,11.0,95,0.07,,,-99.99,,2013-02-07 19:22:00,
2013-02-07 13:32:00,39.0,38.0,-100.00,NW,315,6.0,9.0,95,0.07,,,-99.99,,2013-02-07 19:32:00,
2013-02-07 13:41:00,40.0,38.0,-100.00,NNW,330,7.0,11.0,95,0.04,,,-99.99,,2013-02-07 19:41:00,
2013-02-07 13:51:00,40.0,38.0,-100.00,NW,310,9.0,14.0,95,0.04,,,-99.99,,2013-02-07 19:51:00,
2013-02-07 14:01:00,40.0,38.0,-100.00,NW,310,9.0,14.0,95,0.04,,,-99.99,,2013-02-07 20:01:00,
2013-02-07 14:11:00,39.0,38.0,-100.00,NW,310,11.0,16.0,95,0.04,,,-99.99,,2013-02-07 20:11:00,
2013-02-07 14:21:00,39.0,38.0,-100.00,NW,305,12.0,16.0,95,0.03,,,-99.99,,2013-02-07 20:21:00,
2013-02-07 14:31:00,39.0,38.0,-100.00,NW,315,12.0,19.0,95,0.03,,,-99.99,,2013-02-07 20:31:00,
2013-02-07 14:41:00,38.0,37.0,-100.00,NW,315,13.0,20.0,95,0.04,,,-99.99,,2013-02-07 20:41:00,
2013-02-07 14:52:00,38.0,37.0,-100.00,NW,305,11.0,15.0,95,0.03,,,-99.99,,2013-02-07 20:52:00,
2013-02-07 15:02:00,38.0,37.0,-100.00,NW,305,11.0,15.0,95,0.03,,,-99.99,,2013-02-07 21:02:00,
2013-02-07 15:11:00,37.0,36.0,-100.00,NW,315,12.0,16.0,95,0.01,,,-99.99,,2013-02-07 21:11:00,
2013-02-07 15:21:00,37.0,36.0,-100.00,NW,320,13.0,21.0,95,0.00,,,-99.99,,2013-02-07 21:21:00,
2013-02-07 15:32:00,37.0,36.0,-100.00,NW,305,16.0,25.0,95,0.00,,,-99.99,,2013-02-07 21:32:00,
2013-02-07 15:42:00,37.0,36.0,-100.00,NW,305,16.0,25.0,95,0.00,,,-99.99,,2013-02-07 21:42:00,
2013-02-07 15:51:00,35.0,34.0,-100.00,WNW,300,17.0,24.0,95,0.00,,,-99.99,,2013-02-07 21:51:00,
2013-02-07 16:02:00,35.0,34.0,-100.00,WNW,300,17.0,24.0,95,0.00,,,-99.99,,2013-02-07 22:02:00,
2013-02-07 16:11:00,35.0,34.0,-100.00,WNW,300,15.0,19.0,95,0.00,,,-99.99,,2013-02-07 22:11:00,
2013-02-07 16:21:00,35.0,34.0,-100.00,NW,310,16.0,21.0,95,0.00,,,-99.99,,2013-02-07 22:21:00,
2013-02-07 16:32:00,35.0,33.0,-100.00,NW,305,14.0,20.0,94,0.00,,,-99.99,,2013-02-07 22:32:00,
2013-02-07 16:42:00,34.0,33.0,-100.00,NW,315,14.0,21.0,94,0.00,,,-99.99,,2013-02-07 22:42:00,
2013-02-07 16:51:00,34.0,33.0,-100.00,NW,310,14.0,22.0,94,0.00,,,-99.99,,2013-02-07 22:51:00,
2013-02-07 17:01:00,34.0,33.0,-100.00,NW,310,14.0,22.0,94,0.00,,,-99.99,,2013-02-07 23:01:00,
2013-02-07 17:11:00,34.0,33.0,-100.00,WNW,300,15.0,20.0,94,0.00,,,-99.99,,2013-02-07 23:11:00,
2013-02-07 17:21:00,34.0,33.0,-100.00,NW,305,14.0,20.0,94,0.00,,,-99.99,,2013-02-07 23:21:00,
2013-02-07 17:32:00,34.0,33.0,-100.00,WNW,300,15.0,23.0,94,0.00,,,-99.99,,2013-02-07 23:32:00,
2013-02-07 17:41:00,34.0,32.0,-100.00,NW,315,17.0,22.0,94,0.00,,,-99.99,,2013-02-07 23:41:00,
2013-02-07 17:52:00,34.0,32.0,-100.00,WNW,300,10.0,19.0,94,0.00,,,-99.99,,2013-02-07 23:52:00,
2013-02-07 18:01:00,34.0,32.0,-100.00,WNW,300,10.0,19.0,94,0.00,,,-99.99,,2013-02-08 00:01:00,
2013-02-07 18:11:00,33.0,32.0,-100.00,NW,315,12.0,21.0,94,0.00,,,-99.99,,2013-02-08 00:11:00,
2013-02-07 18:21:00,33.0,32.0,-100.00,NW,310,13.0,19.0,93,0.00,,,-99.99,,2013-02-08 00:21:00,
2013-02-07 18:32:00,33.0,31.0,-100.00,NW,305,13.0,18.0,93,0.00,,,-99.99,,2013-02-08 00:32:00,
2013-02-07 18:41:00,33.0,31.0,-100.00,NW,310,16.0,23.0,93,0.00,,,-99.99,,2013-02-08 00:41:00,
2013-02-07 18:52:00,33.0,31.0,-100.00,NW,305,14.0,19.0,93,0.00,,,-99.99,,2013-02-08 00:52:00,
2013-02-07 19:01:00,33.0,31.0,-100.00,NW,305,14.0,19.0,93,0.00,,,-99.99,,2013-02-08 01:01:00,
2013-02-07 19:11:00,33.0,31.0,-100.00,NW,315,16.0,24.0,93,0.00,,,-99.99,,2013-02-08 01:11:00,
2013-02-07 19:21:00,33.0,31.0,-100.00,NW,310,12.0,19.0,92,0.00,,,-99.99,,2013-02-08 01:21:00,
2013-02-07 19:31:00,33.0,31.0,-100.00,NW,305,12.0,20.0,92,0.00,,,-99.99,,2013-02-08 01:31:00,
2013-02-07 19:41:00,33.0,31.0,-100.00,NW,310,16.0,21.0,92,0.00,,,-99.99,,2013-02-08 01:41:00,
2013-02-07 19:51:00,33.0,30.0,-100.00,NW,310,13.0,21.0,92,0.00,,,-99.99,,2013-02-08 01:51:00,
2013-02-07 20:01:00,33.0,30.0,-100.00,NW,310,13.0,21.0,92,0.00,,,-99.99,,2013-02-08 02:01:00,
2013-02-07 20:11:00,32.0,30.0,-100.00,NW,310,12.0,22.0,92,0.00,,,-99.99,,2013-02-08 02:11:00,
2013-02-07 20:21:00,32.0,30.0,-100.00,NW,310,15.0,21.0,92,0.00,,,-99.99,,2013-02-08 02:21:00,
2013-02-07 20:32:00,32.0,30.0,-100.00,NW,310,17.0,24.0,91,0.00,,,-99.99,,2013-02-08 02:32:00,
2013-02-07 20:42:00,32.0,30.0,-100.00,NW,305,17.0,27.0,91,0.00,,,-99.99,,2013-02-08 02:42:00,
2013-02-07 20:52:00,32.0,30.0,-100.00,NW,320,15.0,22.0,90,0.00,,,-99.99,,2013-02-08 02:52:00,
2013-02-07 21:01:00,32.0,30.0,-100.00,NW,320,15.0,22.0,90,0.00,,,-99.99,,2013-02-08 03:01:00,
2013-02-07 21:12:00,32.0,29.0,-100.00,NW,310,15.0,29.0,90,0.00,,,-99.99,,2013-02-08 03:12:00,
2013-02-07 21:22:00,32.0,29.0,-100.00,NW,320,17.0,23.0,90,0.00,,,-99.99,,2013-02-08 03:22:00,
2013-02-07 21:32:00,32.0,29.0,-100.00,NW,320,19.0,24.0,90,0.00,,,-99.99,,2013-02-08 03:32:00,
2013-02-07 21:41:00,32.0,29.0,-100.00,NW,320,16.0,21.0,90,0.00,,,-99.99,,2013-02-08 03:41:00,
2013-02-07 21:51:00,32.0,29.0,-100.00,NW,315,12.0,21.0,90,0.00,,,-99.99,,2013-02-08 03:51:00,
2013-02-07 22:01:00,32.0,29.0,-100.00,NW,310,14.0,20.0,90,0.00,,,-99.99,,2013-02-08 04:01:00,
2013-02-07 22:11:00,32.0,29.0,-100.00,NW,325,12.0,21.0,90,0.00,,,-99.99,,2013-02-08 04:11:00,
2013-02-07 22:21:00,32.0,29.0,-100.00,NW,325,11.0,21.0,90,0.00,,,-99.99,,2013-02-08 04:21:00,
2013-02-07 22:32:00,32.0,29.0,-100.00,NW,310,11.0,16.0,90,0.00,,,-99.99,,2013-02-08 04:32:00,
2013-02-07 22:41:00,32.0,29.0,-100.00,NNW,335,9.0,18.0,90,0.00,,,-99.99,,2013-02-08 04:41:00,
2013-02-07 22:51:00,32.0,29.0,-100.00,NW,310,11.0,15.0,90,0.00,,,-99.99,,2013-02-08 04:51:00,
2013-02-07 23:02:00,32.0,29.0,-100.00,NW,315,11.0,19.0,90,0.00,,,-99.99,,2013-02-08 05:02:00,
2013-02-07 23:11:00,31.0,29.0,-100.00,NNW,335,10.0,17.0,88,0.00,,,-99.99,,2013-02-08 05:11:00,
2013-02-07 23:22:00,32.0,29.0,-100.00,NW,310,11.0,18.0,88,0.00,,,-99.99,,2013-02-08 05:22:00,
2013-02-07 23:32:00,31.0,28.0,-100.00,NW,325,14.0,22.0,88,0.00,,,-99.99,,2013-02-08 05:32:00,
2013-02-07 23:41:00,31.0,28.0,-100.00,NNW,330,9.0,24.0,87,0.00,,,-99.99,,2013-02-08 05:41:00,
2013-02-07 23:52:00,31.0,28.0,-100.00,NNW,335,12.0,21.0,86,0.00,,,-99.99,,2013-02-08 05:52:00,